Sioux Arrow — WAG6168 — position and weather

sailwx.info

Track history (hours):
 
Tides and Currents Weather Stations Pressure Air Temp Water Temp Dewpoint Dewpoint Depression Visibility Wind Speed Wind Dir Waves Ship Positions

Sioux Arrow

Owner: HARMON, JACK L, PORT ANGELES, WA. More information available from US FCC via Universal Licensing System and Coast Guard Vessel Documentation Center.

Last reported at 2014-Nov-26 15:33 UTC. Time now 2014-Nov-26 16:22 UTC.
Position N 48°31' W 122°36'.

Type: Port tender. MMSI: 366973370.

Date/timePositionNaut miles runAvg speedWind from/ knotsBaromVisibWave heightAir tempDewpointWater temp
2014-Nov-26 15:33N 48°31' W 122°36'0 0.0
2014-Nov-26 07:16N 48°31' W 122°36'0 0.0
2014-Nov-26 06:33N 48°31' W 122°36'0 0.0
2014-Nov-26 05:33N 48°31' W 122°36'0 0.0
2014-Nov-26 04:33N 48°31' W 122°36'0 0.0
2014-Nov-26 03:33N 48°31' W 122°36'0 0.1
2014-Nov-26 02:33N 48°31' W 122°36'0 0.1
2014-Nov-26 01:33N 48°31' W 122°36'1 0.6
2014-Nov-26 00:33N 48°31' W 122°36'1 0.6
2014-Nov-25 23:33N 48°31' W 122°36'0 0.0
2014-Nov-25 22:33N 48°31' W 122°37'0 0.0
2014-Nov-25 21:33N 48°31' W 122°37'1 1.1
2014-Nov-25 20:33N 48°31' W 122°35'1 1.0
2014-Nov-25 19:33N 48°31' W 122°36'0 0.0
2014-Nov-25 18:33N 48°31' W 122°36'0 0.0
2014-Nov-25 17:33N 48°31' W 122°37'1 1.1
2014-Nov-25 16:33N 48°31' W 122°35'1 0.9
2014-Nov-25 15:33N 48°31' W 122°36'0 0.0
2014-Nov-25 03:22N 48°31' W 122°36'1 1.3
2014-Nov-25 02:33N 48°31' W 122°35'1 1.1
2014-Nov-25 01:33N 48°31' W 122°36'1 1.1
2014-Nov-25 00:33N 48°31' W 122°35'5 4.5
2014-Nov-24 23:33N 48°35' W 122°33'5 5.4
2014-Nov-24 22:33N 48°31' W 122°36'1 1.3
2014-Nov-24 21:33N 48°31' W 122°34'1 1.5
2014-Nov-24 20:33N 48°32' W 122°34'2 1.7
2014-Nov-24 19:33N 48°31' W 122°36'1 0.7
2014-Nov-24 18:33N 48°31' W 122°37'1 1.0
2014-Nov-24 17:33N 48°31' W 122°35'1 1.0
2014-Nov-24 16:33N 48°31' W 122°37'0 0.0
2014-Nov-24 15:33N 48°31' W 122°37'1 1.2
2014-Nov-24 14:33N 48°31' W 122°35'1 0.4
2014-Nov-24 11:33N 48°31' W 122°36'0 0.0
2014-Nov-24 10:33N 48°31' W 122°36'0 0.0
2014-Nov-24 09:33N 48°31' W 122°36'0 0.0
2014-Nov-24 08:33N 48°31' W 122°36'0 0.0
2014-Nov-24 07:33N 48°31' W 122°36'0 0.0
2014-Nov-24 06:33N 48°31' W 122°36'1 1.0
2014-Nov-24 05:33N 48°31' W 122°35'0 0.0
2014-Nov-24 04:33N 48°31' W 122°35'1 0.8
2014-Nov-24 03:33N 48°31' W 122°36'1 0.8
2014-Nov-24 02:33N 48°31' W 122°35'1 1.0
2014-Nov-24 01:34N 48°31' W 122°36'2 1.7
2014-Nov-24 00:33N 48°31' W 122°34'2 1.6
2014-Nov-23 23:33N 48°31' W 122°36'1 1.5
2014-Nov-23 22:33N 48°31' W 122°34'1 0.6
2014-Nov-23 21:33N 48°31' W 122°35'1 1.5
2014-Nov-23 20:33N 48°31' W 122°36'1 0.7
2014-Nov-23 19:33N 48°31' W 122°35'1 0.7
2014-Nov-23 18:33N 48°31' W 122°36'0 0.0
2014-Nov-23 17:33N 48°31' W 122°36'1 1.1
2014-Nov-23 16:33N 48°31' W 122°35'1 1.1
2014-Nov-23 15:34N 48°31' W 122°36'0 0.0
2014-Nov-22 21:22N 48°31' W 122°36'3 3.4
2014-Nov-22 20:33N 48°33' W 122°34'2 2.2
2014-Nov-22 19:33N 48°31' W 122°35'1 0.1
2014-Nov-22 05:19N 48°31' W 122°37'0 0.1
2014-Nov-22 04:33N 48°31' W 122°36'0 0.0
2014-Nov-21 23:33N 48°31' W 122°36'1 1.1
2014-Nov-21 22:33N 48°31' W 122°35'0 0.0
2014-Nov-21 21:33N 48°31' W 122°35'1 1.1
2014-Nov-21 20:33N 48°31' W 122°37'5 5.5
2014-Nov-21 19:34N 48°35' W 122°33'4 4.1
2014-Nov-21 18:33N 48°31' W 122°34'2 1.8
2014-Nov-21 17:33N 48°31' W 122°36'0 0.1
2014-Nov-21 16:33N 48°31' W 122°37'0 0.2
2014-Nov-21 15:33N 48°31' W 122°36'0 0.0
2014-Nov-21 06:30N 48°31' W 122°36'0 0.0
2014-Nov-21 05:33N 48°31' W 122°36'0 0.0
2014-Nov-21 04:33N 48°31' W 122°36'0 0.0
2014-Nov-21 03:33N 48°31' W 122°36'0 0.0
2014-Nov-21 02:33N 48°31' W 122°36'1 0.7
2014-Nov-21 01:33N 48°31' W 122°37'1 0.9
2014-Nov-21 00:33N 48°31' W 122°36'0 0.4
2014-Nov-20 23:33N 48°31' W 122°36'0 0.2
2014-Nov-20 22:33N 48°31' W 122°36'0 0.0
2014-Nov-20 21:33N 48°31' W 122°36'1 1.0
2014-Nov-20 20:33N 48°31' W 122°35'1 1.0
2014-Nov-20 19:33N 48°31' W 122°36'2 1.5
2014-Nov-20 18:33N 48°31' W 122°34'2 1.6
2014-Nov-20 17:33N 48°31' W 122°37'0 0.0
2014-Nov-20 16:33N 48°31' W 122°37'0 0.1
2014-Nov-20 15:33N 48°31' W 122°36'1 0.1
2014-Nov-20 06:33N 48°31' W 122°35'1 1.0
2014-Nov-20 05:33N 48°31' W 122°36'0 0.0
2014-Nov-20 04:33N 48°31' W 122°36'1 1.3
2014-Nov-20 03:33N 48°31' W 122°35'0 0.2
2014-Nov-20 02:33N 48°31' W 122°34'2 1.6
2014-Nov-20 01:33N 48°31' W 122°36'2 1.5
2014-Nov-20 00:33N 48°31' W 122°34'2 1.5
2014-Nov-19 23:33N 48°31' W 122°36'2 1.6
2014-Nov-19 22:33N 48°31' W 122°34'2 1.6
2014-Nov-19 21:33N 48°31' W 122°36'1 0.8
2014-Nov-19 20:33N 48°31' W 122°35'1 0.8
2014-Nov-19 19:33N 48°31' W 122°36'3 2.7
2014-Nov-19 18:33N 48°33' W 122°34'2 1.8
2014-Nov-19 17:33N 48°35' W 122°34'4 3.8
2014-Nov-19 16:33N 48°31' W 122°34'2 1.6
2014-Nov-19 15:33N 48°31' W 122°36'2 1.6
2014-Nov-19 14:33N 48°31' W 122°34'0 0.1
2014-Nov-19 13:33N 48°31' W 122°34'2 1.5
2014-Nov-19 12:33N 48°31' W 122°36'0 0.0
2014-Nov-19 11:33N 48°31' W 122°36'0 0.0
2014-Nov-19 10:33N 48°31' W 122°36'0 0.0
2014-Nov-19 09:33N 48°31' W 122°36'0 0.0
2014-Nov-19 08:33N 48°31' W 122°36'0 0.0
2014-Nov-19 07:33N 48°31' W 122°36'0 0.0
2014-Nov-19 06:33N 48°31' W 122°36'0 0.0
2014-Nov-19 05:33N 48°31' W 122°36'1 1.4
2014-Nov-19 04:34N 48°31' W 122°34'1 1.2
2014-Nov-19 03:34N 48°31' W 122°36'0 0.1
2014-Nov-19 02:33N 48°31' W 122°36'0 0.0
2014-Nov-19 01:33N 48°31' W 122°36'4 4.2
2014-Nov-19 00:33N 48°35' W 122°34'4 4.2
2014-Nov-18 23:33N 48°31' W 122°36'6 5.7
2014-Nov-18 22:33N 48°35' W 122°32'5 5.5
2014-Nov-18 21:33N 48°31' W 122°36'0 0.3
2014-Nov-18 20:33N 48°31' W 122°36'0 0.1
2014-Nov-18 19:33N 48°31' W 122°36'6 6.0
2014-Nov-18 18:33N 48°36' W 122°32'6 6.0
2014-Nov-18 17:33N 48°31' W 122°37'2 1.6
2014-Nov-18 16:33N 48°31' W 122°34'1 1.4
2014-Nov-18 15:33N 48°31' W 122°36'0 0.1
2014-Nov-18 12:33N 48°31' W 122°36'1 0.2
2014-Nov-18 06:34N 48°31' W 122°35'1 1.0
2014-Nov-18 05:34N 48°31' W 122°36'0 0.0
2014-Nov-18 04:33N 48°31' W 122°36'0 0.3
2014-Nov-18 03:34N 48°31' W 122°36'0 0.5
2014-Nov-18 02:33N 48°31' W 122°35'0 0.1
2014-Nov-18 01:33N 48°31' W 122°35'0 0.0
2014-Nov-18 00:33N 48°31' W 122°35'1 0.8
2014-Nov-17 23:33N 48°31' W 122°36'0 0.1
2014-Nov-17 22:33N 48°31' W 122°36'0 0.0
2014-Nov-17 21:33N 48°31' W 122°36'2 1.5
2014-Nov-17 20:33N 48°31' W 122°34'1 1.3
2014-Nov-17 19:33N 48°31' W 122°36'1 1.3
2014-Nov-17 18:33N 48°31' W 122°34'2 1.5
2014-Nov-17 17:33N 48°31' W 122°36'1 0.6
2014-Nov-17 16:33N 48°31' W 122°36'1 0.6
2014-Nov-17 15:33N 48°31' W 122°36'0 0.0
2014-Nov-17 07:07N 48°31' W 122°36'610.6
2014-Nov-17 06:33N 48°36' W 122°32'6 5.8
2014-Nov-17 05:33N 48°31' W 122°36'0 0.2
2014-Nov-17 04:33N 48°31' W 122°36'0 0.0
2014-Nov-16 21:26N 48°31' W 122°36'6 6.9
2014-Nov-16 20:33N 48°36' W 122°34'6 6.1
2014-Nov-16 19:33N 48°31' W 122°36'  
Track history (hours):
 
Tides and Currents Weather Stations Pressure Air Temp Water Temp Dewpoint Dewpoint Depression Visibility Wind Speed Wind Dir Waves Ship Positions

Sioux Arrow

Owner: HARMON, JACK L, PORT ANGELES, WA. More information available from US FCC via Universal Licensing System and Coast Guard Vessel Documentation Center.

Last reported at 2014-Nov-26 15:33 UTC. Time now 2014-Nov-26 16:22 UTC.
Position N 48°31' W 122°36'.

Type: Port tender. MMSI: 366973370.

Date/timePositionNaut miles runAvg speedWind from/ knotsBaromVisibWave heightAir tempDewpointWater temp
2014-Nov-26 15:33N 48°31' W 122°36'0 0.0
2014-Nov-26 07:16N 48°31' W 122°36'0 0.0
2014-Nov-26 06:33N 48°31' W 122°36'0 0.0
2014-Nov-26 05:33N 48°31' W 122°36'0 0.0
2014-Nov-26 04:33N 48°31' W 122°36'0 0.0
2014-Nov-26 03:33N 48°31' W 122°36'0 0.1
2014-Nov-26 02:33N 48°31' W 122°36'0 0.1
2014-Nov-26 01:33N 48°31' W 122°36'1 0.6
2014-Nov-26 00:33N 48°31' W 122°36'1 0.6
2014-Nov-25 23:33N 48°31' W 122°36'0 0.0
2014-Nov-25 22:33N 48°31' W 122°37'0 0.0
2014-Nov-25 21:33N 48°31' W 122°37'1 1.1
2014-Nov-25 20:33N 48°31' W 122°35'1 1.0
2014-Nov-25 19:33N 48°31' W 122°36'0 0.0
2014-Nov-25 18:33N 48°31' W 122°36'0 0.0
2014-Nov-25 17:33N 48°31' W 122°37'1 1.1
2014-Nov-25 16:33N 48°31' W 122°35'1 0.9
2014-Nov-25 15:33N 48°31' W 122°36'0 0.0
2014-Nov-25 03:22N 48°31' W 122°36'1 1.3
2014-Nov-25 02:33N 48°31' W 122°35'1 1.1
2014-Nov-25 01:33N 48°31' W 122°36'1 1.1
2014-Nov-25 00:33N 48°31' W 122°35'5 4.5
2014-Nov-24 23:33N 48°35' W 122°33'5 5.4
2014-Nov-24 22:33N 48°31' W 122°36'1 1.3
2014-Nov-24 21:33N 48°31' W 122°34'1 1.5
2014-Nov-24 20:33N 48°32' W 122°34'2 1.7
2014-Nov-24 19:33N 48°31' W 122°36'1 0.7
2014-Nov-24 18:33N 48°31' W 122°37'1 1.0
2014-Nov-24 17:33N 48°31' W 122°35'1 1.0
2014-Nov-24 16:33N 48°31' W 122°37'0 0.0
2014-Nov-24 15:33N 48°31' W 122°37'1 1.2
2014-Nov-24 14:33N 48°31' W 122°35'1 0.4
2014-Nov-24 11:33N 48°31' W 122°36'0 0.0
2014-Nov-24 10:33N 48°31' W 122°36'0 0.0
2014-Nov-24 09:33N 48°31' W 122°36'0 0.0
2014-Nov-24 08:33N 48°31' W 122°36'0 0.0
2014-Nov-24 07:33N 48°31' W 122°36'0 0.0
2014-Nov-24 06:33N 48°31' W 122°36'1 1.0
2014-Nov-24 05:33N 48°31' W 122°35'0 0.0
2014-Nov-24 04:33N 48°31' W 122°35'1 0.8
2014-Nov-24 03:33N 48°31' W 122°36'1 0.8
2014-Nov-24 02:33N 48°31' W 122°35'1 1.0
2014-Nov-24 01:34N 48°31' W 122°36'2 1.7
2014-Nov-24 00:33N 48°31' W 122°34'2 1.6
2014-Nov-23 23:33N 48°31' W 122°36'1 1.5
2014-Nov-23 22:33N 48°31' W 122°34'1 0.6
2014-Nov-23 21:33N 48°31' W 122°35'1 1.5
2014-Nov-23 20:33N 48°31' W 122°36'1 0.7
2014-Nov-23 19:33N 48°31' W 122°35'1 0.7
2014-Nov-23 18:33N 48°31' W 122°36'0 0.0
2014-Nov-23 17:33N 48°31' W 122°36'1 1.1
2014-Nov-23 16:33N 48°31' W 122°35'1 1.1
2014-Nov-23 15:34N 48°31' W 122°36'0 0.0
2014-Nov-22 21:22N 48°31' W 122°36'3 3.4
2014-Nov-22 20:33N 48°33' W 122°34'2 2.2
2014-Nov-22 19:33N 48°31' W 122°35'1 0.1
2014-Nov-22 05:19N 48°31' W 122°37'0 0.1
2014-Nov-22 04:33N 48°31' W 122°36'0 0.0
2014-Nov-21 23:33N 48°31' W 122°36'1 1.1
2014-Nov-21 22:33N 48°31' W 122°35'0 0.0
2014-Nov-21 21:33N 48°31' W 122°35'1 1.1
2014-Nov-21 20:33N 48°31' W 122°37'5 5.5
2014-Nov-21 19:34N 48°35' W 122°33'4 4.1
2014-Nov-21 18:33N 48°31' W 122°34'2 1.8
2014-Nov-21 17:33N 48°31' W 122°36'0 0.1
2014-Nov-21 16:33N 48°31' W 122°37'0 0.2
2014-Nov-21 15:33N 48°31' W 122°36'0 0.0
2014-Nov-21 06:30N 48°31' W 122°36'0 0.0
2014-Nov-21 05:33N 48°31' W 122°36'0 0.0
2014-Nov-21 04:33N 48°31' W 122°36'0 0.0
2014-Nov-21 03:33N 48°31' W 122°36'0 0.0
2014-Nov-21 02:33N 48°31' W 122°36'1 0.7
2014-Nov-21 01:33N 48°31' W 122°37'1 0.9
2014-Nov-21 00:33N 48°31' W 122°36'0 0.4
2014-Nov-20 23:33N 48°31' W 122°36'0 0.2
2014-Nov-20 22:33N 48°31' W 122°36'0 0.0
2014-Nov-20 21:33N 48°31' W 122°36'1 1.0
2014-Nov-20 20:33N 48°31' W 122°35'1 1.0
2014-Nov-20 19:33N 48°31' W 122°36'2 1.5
2014-Nov-20 18:33N 48°31' W 122°34'2 1.6
2014-Nov-20 17:33N 48°31' W 122°37'0 0.0
2014-Nov-20 16:33N 48°31' W 122°37'0 0.1
2014-Nov-20 15:33N 48°31' W 122°36'1 0.1
2014-Nov-20 06:33N 48°31' W 122°35'1 1.0
2014-Nov-20 05:33N 48°31' W 122°36'0 0.0
2014-Nov-20 04:33N 48°31' W 122°36'1 1.3
2014-Nov-20 03:33N 48°31' W 122°35'0 0.2
2014-Nov-20 02:33N 48°31' W 122°34'2 1.6
2014-Nov-20 01:33N 48°31' W 122°36'2 1.5
2014-Nov-20 00:33N 48°31' W 122°34'2 1.5
2014-Nov-19 23:33N 48°31' W 122°36'2 1.6
2014-Nov-19 22:33N 48°31' W 122°34'2 1.6
2014-Nov-19 21:33N 48°31' W 122°36'1 0.8
2014-Nov-19 20:33N 48°31' W 122°35'1 0.8
2014-Nov-19 19:33N 48°31' W 122°36'3 2.7
2014-Nov-19 18:33N 48°33' W 122°34'2 1.8
2014-Nov-19 17:33N 48°35' W 122°34'4 3.8
2014-Nov-19 16:33N 48°31' W 122°34'2 1.6
2014-Nov-19 15:33N 48°31' W 122°36'2 1.6
2014-Nov-19 14:33N 48°31' W 122°34'0 0.1
2014-Nov-19 13:33N 48°31' W 122°34'2 1.5
2014-Nov-19 12:33N 48°31' W 122°36'0 0.0
2014-Nov-19 11:33N 48°31' W 122°36'0 0.0
2014-Nov-19 10:33N 48°31' W 122°36'0 0.0
2014-Nov-19 09:33N 48°31' W 122°36'0 0.0
2014-Nov-19 08:33N 48°31' W 122°36'0 0.0
2014-Nov-19 07:33N 48°31' W 122°36'0 0.0
2014-Nov-19 06:33N 48°31' W 122°36'0 0.0
2014-Nov-19 05:33N 48°31' W 122°36'1 1.4
2014-Nov-19 04:34N 48°31' W 122°34'1 1.2
2014-Nov-19 03:34N 48°31' W 122°36'0 0.1
2014-Nov-19 02:33N 48°31' W 122°36'0 0.0
2014-Nov-19 01:33N 48°31' W 122°36'4 4.2
2014-Nov-19 00:33N 48°35' W 122°34'4 4.2
2014-Nov-18 23:33N 48°31' W 122°36'6 5.7
2014-Nov-18 22:33N 48°35' W 122°32'5 5.5
2014-Nov-18 21:33N 48°31' W 122°36'0 0.3
2014-Nov-18 20:33N 48°31' W 122°36'0 0.1
2014-Nov-18 19:33N 48°31' W 122°36'6 6.0
2014-Nov-18 18:33N 48°36' W 122°32'6 6.0
2014-Nov-18 17:33N 48°31' W 122°37'2 1.6
2014-Nov-18 16:33N 48°31' W 122°34'1 1.4
2014-Nov-18 15:33N 48°31' W 122°36'0 0.1
2014-Nov-18 12:33N 48°31' W 122°36'1 0.2
2014-Nov-18 06:34N 48°31' W 122°35'1 1.0
2014-Nov-18 05:34N 48°31' W 122°36'0 0.0
2014-Nov-18 04:33N 48°31' W 122°36'0 0.3
2014-Nov-18 03:34N 48°31' W 122°36'0 0.5
2014-Nov-18 02:33N 48°31' W 122°35'0 0.1
2014-Nov-18 01:33N 48°31' W 122°35'0 0.0
2014-Nov-18 00:33N 48°31' W 122°35'1 0.8
2014-Nov-17 23:33N 48°31' W 122°36'0 0.1
2014-Nov-17 22:33N 48°31' W 122°36'0 0.0
2014-Nov-17 21:33N 48°31' W 122°36'2 1.5
2014-Nov-17 20:33N 48°31' W 122°34'1 1.3
2014-Nov-17 19:33N 48°31' W 122°36'1 1.3
2014-Nov-17 18:33N 48°31' W 122°34'2 1.5
2014-Nov-17 17:33N 48°31' W 122°36'1 0.6
2014-Nov-17 16:33N 48°31' W 122°36'1 0.6
2014-Nov-17 15:33N 48°31' W 122°36'0 0.0
2014-Nov-17 07:07N 48°31' W 122°36'610.6
2014-Nov-17 06:33N 48°36' W 122°32'6 5.8
2014-Nov-17 05:33N 48°31' W 122°36'0 0.2
2014-Nov-17 04:33N 48°31' W 122°36'0 0.0
2014-Nov-16 21:26N 48°31' W 122°36'6 6.9
2014-Nov-16 20:33N 48°36' W 122°34'6 6.1
2014-Nov-16 19:33N 48°31' W 122°36'  

Dump ship's entire track history